When you browse on this site, cookies collect data to enhance your experience and personalize the content and advertising you see.
Visit our Privacy Policy to learn more. By continuing to use the site, you agree to this use of cookies and data.
  • In Hungary
  • List of Countries
  • For 7 days
  • Water Temperature
  • Satellite Maps
  • Weather Map
  • News
  • Weather Widgets
  • user-avatar
    Login

    Hourly Weather Karamadai

    Today, 19 April, Friday

    Time Temperature Precipitation Wind Pressure Humidity
    00:00 +31°C° 0.1 mm 1 mps 728 mmHg 61%
    01:00 +30°C° 0.1 mm 1 mps 728 mmHg 63%
    02:00 +30°C° 0.1 mm 1 mps 728 mmHg 65%
    03:00 +29°C° 0.1 mm 1 mps 728 mmHg 66%
    04:00 +29°C° 0.1 mm 1 mps 728 mmHg 67%
    05:00 +27°C° 0.1 mm 0 mps 727 mmHg 68%
    06:00 +28°C° 0.1 mm 0 mps 728 mmHg 64%
    07:00 +29°C° 0.1 mm 0 mps 728 mmHg 61%
    08:00 +30°C° 0.1 mm 0 mps 729 mmHg 57%
    09:00 +33°C° 0.1 mm 1 mps 729 mmHg 51%
    10:00 +35°C° 0.1 mm 1 mps 728 mmHg 44%
    11:00 +37°C° 0.1 mm 1 mps 728 mmHg 37%
    12:00 +39°C° 0 mm 1 mps 728 mmHg 34%
    13:00 +39°C° 0 mm 1 mps 727 mmHg 30%
    14:00 +40°C° 0 mm 1 mps 726 mmHg 27%
    15:00 +39°C° 0 mm 1 mps 726 mmHg 28%
    16:00 +39°C° 0 mm 1 mps 726 mmHg 29%
    17:00 +37°C° 0 mm 1 mps 726 mmHg 30%
    18:00 +37°C° 0 mm 2 mps 726 mmHg 36%
    19:00 +35°C° 0 mm 2 mps 727 mmHg 43%
    20:00 +32°C° 0 mm 2 mps 727 mmHg 49%
    21:00 +32°C° 0.1 mm 2 mps 728 mmHg 51%
    22:00 +31°C° 0.1 mm 2 mps 728 mmHg 54%
    23:00 +31°C° 0.1 mm 2 mps 728 mmHg 56%

    Tomorrow, 20 April, Saturday

    Time Temperature Precipitation Wind Pressure Humidity
    00:00 +30°C° 0.3 mm 2 mps 728 mmHg 59%
    01:00 +30°C° 0.3 mm 2 mps 727 mmHg 61%
    02:00 +29°C° 0.3 mm 1 mps 727 mmHg 64%
    03:00 +29°C° 0.2 mm 1 mps 727 mmHg 65%
    04:00 +28°C° 0.2 mm 1 mps 726 mmHg 66%
    05:00 +28°C° 0.2 mm 1 mps 726 mmHg 67%
    06:00 +29°C° 0.2 mm 1 mps 727 mmHg 63%
    07:00 +31°C° 0.2 mm 1 mps 728 mmHg 59%
    08:00 +32°C° 0.2 mm 1 mps 728 mmHg 54%
    09:00 +33°C° 0.5 mm 1 mps 728 mmHg 50%
    10:00 +35°C° 0.5 mm 1 mps 728 mmHg 46%
    11:00 +36°C° 0.5 mm 1 mps 728 mmHg 42%
    12:00 +37°C° 0.4 mm 1 mps 727 mmHg 40%
    13:00 +37°C° 0.4 mm 1 mps 726 mmHg 38%
    14:00 +39°C° 0.4 mm 1 mps 726 mmHg 36%
    15:00 +37°C° 0.3 mm 1 mps 725 mmHg 39%
    16:00 +37°C° 0.3 mm 2 mps 725 mmHg 42%
    17:00 +36°C° 0.3 mm 2 mps 725 mmHg 44%
    18:00 +35°C° 0.6 mm 2 mps 726 mmHg 49%
    19:00 +34°C° 0.6 mm 2 mps 726 mmHg 53%
    20:00 +33°C° 0.6 mm 3 mps 727 mmHg 58%
    21:00 +31°C° 1 mm 2 mps 727 mmHg 61%
    22:00 +31°C° 1 mm 2 mps 727 mmHg 64%
    23:00 +30°C° 1 mm 2 mps 728 mmHg 67%

    Day after tomorrow, 21 April, Sunday

    Time Temperature Precipitation Wind Pressure Humidity
    00:00 +30°C° 2.7 mm 2 mps 727 mmHg 68%
    01:00 +29°C° 2.7 mm 2 mps 727 mmHg 70%
    02:00 +29°C° 2.7 mm 1 mps 726 mmHg 72%
    03:00 +29°C° 0.5 mm 1 mps 726 mmHg 72%
    04:00 +28°C° 0.5 mm 1 mps 726 mmHg 71%
    05:00 +28°C° 0.5 mm 1 mps 726 mmHg 70%
    06:00 +29°C° 0 mm 1 mps 727 mmHg 65%
    07:00 +30°C° 0 mm 1 mps 728 mmHg 60%
    08:00 +29°C° 0 mm 0 mps 728 mmHg 55%
    09:00 +32°C° 0 mm 1 mps 728 mmHg 49%
    10:00 +34°C° 0 mm 1 mps 728 mmHg 44%
    11:00 +35°C° 0 mm 1 mps 728 mmHg 38%
    12:00 +36°C° 0 mm 1 mps 727 mmHg 37%
    13:00 +36°C° 0 mm 1 mps 726 mmHg 35%
    14:00 +38°C° 0 mm 2 mps 726 mmHg 34%
    15:00 +37°C° 0.1 mm 2 mps 725 mmHg 37%
    16:00 +36°C° 0.1 mm 2 mps 725 mmHg 40%
    17:00 +36°C° 0.1 mm 2 mps 725 mmHg 43%
    18:00 +34°C° 0.6 mm 2 mps 726 mmHg 49%
    19:00 +32°C° 0.6 mm 2 mps 726 mmHg 54%
    20:00 +31°C° 0.6 mm 2 mps 727 mmHg 60%
    21:00 +31°C° 0.3 mm 2 mps 727 mmHg 61%
    22:00 +31°C° 0.3 mm 2 mps 727 mmHg 62%
    23:00 +30°C° 0.3 mm 2 mps 727 mmHg 63%

    22 April, Monday

    Time Temperature Precipitation Wind Pressure Humidity
    00:00 +30°C° 0.3 mm 2 mps 727 mmHg 64%
    01:00 +30°C° 0.3 mm 1 mps 726 mmHg 64%
    02:00 +29°C° 0.3 mm 1 mps 726 mmHg 65%
    03:00 +29°C° 0.3 mm 1 mps 726 mmHg 65%
    04:00 +29°C° 0.3 mm 1 mps 726 mmHg 65%
    05:00 +29°C° 0.3 mm 1 mps 726 mmHg 65%
    06:00 +30°C° 0 mm 1 mps 727 mmHg 62%
    07:00 +31°C° 0 mm 1 mps 727 mmHg 58%
    08:00 +29°C° 0 mm 0 mps 728 mmHg 55%
    09:00 +33°C° 0 mm 1 mps 728 mmHg 50%
    10:00 +35°C° 0 mm 1 mps 728 mmHg 45%
    11:00 +37°C° 0 mm 1 mps 728 mmHg 39%
    12:00 +37°C° 0.1 mm 1 mps 727 mmHg 37%
    13:00 +39°C° 0.1 mm 1 mps 726 mmHg 35%
    14:00 +40°C° 0.1 mm 1 mps 725 mmHg 32%
    15:00 +39°C° 0.1 mm 1 mps 725 mmHg 34%
    16:00 +39°C° 0.1 mm 2 mps 725 mmHg 36%
    17:00 +38°C° 0.1 mm 2 mps 725 mmHg 37%
    18:00 +37°C° 0.1 mm 2 mps 726 mmHg 41%
    19:00 +36°C° 0.1 mm 2 mps 726 mmHg 44%
    20:00 +34°C° 0.1 mm 1 mps 727 mmHg 47%
    21:00 +34°C° 0.1 mm 2 mps 727 mmHg 50%
    22:00 +32°C° 0.1 mm 2 mps 728 mmHg 53%
    23:00 +31°C° 0.1 mm 2 mps 728 mmHg 57%

    23 April, Tuesday

    Time Temperature Precipitation Wind Pressure Humidity
    00:00 +31°C° 0.1 mm 2 mps 727 mmHg 59%
    01:00 +30°C° 0.1 mm 1 mps 727 mmHg 62%
    02:00 +30°C° 0.1 mm 1 mps 726 mmHg 64%
    03:00 +29°C° 0.1 mm 1 mps 727 mmHg 66%
    04:00 +29°C° 0.1 mm 1 mps 727 mmHg 67%
    05:00 +29°C° 0.1 mm 1 mps 727 mmHg 68%
    06:00 +30°C° 0.1 mm 1 mps 728 mmHg 63%
    07:00 +31°C° 0.1 mm 1 mps 728 mmHg 58%
    08:00 +32°C° 0.1 mm 1 mps 729 mmHg 53%
    09:00 +34°C° 0 mm 1 mps 729 mmHg 48%
    10:00 +35°C° 0 mm 1 mps 728 mmHg 43%
    11:00 +38°C° 0 mm 2 mps 728 mmHg 39%
    12:00 +38°C° 0 mm 2 mps 727 mmHg 37%
    13:00 +39°C° 0 mm 2 mps 726 mmHg 35%
    14:00 +39°C° 0 mm 2 mps 726 mmHg 33%
    15:00 +39°C° 0.1 mm 2 mps 726 mmHg 35%
    16:00 +38°C° 0.1 mm 2 mps 726 mmHg 36%
    17:00 +37°C° 0.1 mm 2 mps 726 mmHg 38%
    18:00 +36°C° 0.1 mm 2 mps 726 mmHg 41%
    19:00 +34°C° 0.1 mm 1 mps 727 mmHg 45%
    20:00 +33°C° 0.1 mm 1 mps 728 mmHg 48%
    21:00 +32°C° 0.1 mm 1 mps 728 mmHg 51%
    22:00 +32°C° 0.1 mm 1 mps 728 mmHg 54%
    23:00 +31°C° 0.1 mm 1 mps 728 mmHg 57%

    24 April, Wednesday

    Time Temperature Precipitation Wind Pressure Humidity
    00:00 +31°C° 0.1 mm 1 mps 728 mmHg 61%
    01:00 +30°C° 0.1 mm 1 mps 727 mmHg 65%
    02:00 +29°C° 0.1 mm 1 mps 727 mmHg 69%
    03:00 +29°C° 0.1 mm 1 mps 727 mmHg 70%
    04:00 +29°C° 0.1 mm 1 mps 727 mmHg 71%
    05:00 +28°C° 0.1 mm 1 mps 727 mmHg 73%
    06:00 +30°C° 0 mm 1 mps 728 mmHg 67%
    07:00 +31°C° 0 mm 1 mps 729 mmHg 62%
    08:00 +32°C° 0 mm 1 mps 729 mmHg 56%
    09:00 +34°C° 0 mm 2 mps 729 mmHg 49%
    10:00 +36°C° 0 mm 2 mps 729 mmHg 42%
    11:00 +38°C° 0 mm 2 mps 729 mmHg 35%
    12:00 +38°C° 0 mm 2 mps 728 mmHg 33%
    13:00 +39°C° 0 mm 3 mps 727 mmHg 31%
    14:00 +40°C° 0 mm 3 mps 726 mmHg 29%
    15:00 +39°C° 0 mm 3 mps 726 mmHg 30%
    16:00 +39°C° 0 mm 3 mps 726 mmHg 31%
    17:00 +38°C° 0 mm 2 mps 726 mmHg 32%
    18:00 +37°C° 0 mm 2 mps 727 mmHg 35%
    19:00 +35°C° 0 mm 2 mps 727 mmHg 39%
    20:00 +33°C° 0 mm 1 mps 728 mmHg 43%
    21:00 +32°C° 0 mm 2 mps 728 mmHg 47%
    22:00 +31°C° 0 mm 2 mps 728 mmHg 52%
    23:00 +30°C° 0 mm 2 mps 728 mmHg 56%
    Show more